OK1FET-5 Weather Reports


Display with metric or nautical units.
time (UTC)temp
F
wind
direction
speed
MPH
gust
MPH
rain 1hr
in
rain 24hr
in
rain mn
in
humidity
%
barometer
mb
20260507070936 58 267 4.0 7.0 0.00 0.00 0.00 84 1010.9
20260507070441 57 268 4.0 7.0 0.00 0.00 0.00 84 1010.8
20260507065948 57 240 4.0 7.0 0.00 0.00 0.00 83 1010.8
20260507065453 57 239 4.0 7.0 0.00 0.00 0.00 83 1010.8
20260507064958 57 237 3.0 6.0 0.00 0.00 0.00 83 1010.8
20260507064010 56 267 4.0 7.0 0.00 0.00 0.00 84 1010.7
20260507062527 55 264 5.0 7.0 0.00 0.00 0.00 85 1010.6
20260507062032 55 239 4.0 7.0 0.00 0.00 0.00 86 1010.5
20260507061538 55 254 4.0 7.0 0.00 0.00 0.00 86 1010.5
20260507061044 55 251 4.0 7.0 0.00 0.00 0.00 86 1010.4
20260507060549 55 234 4.0 7.0 0.00 0.00 0.00 85 1010.4
20260507060055 54 248 3.0 6.0 0.00 0.00 0.00 85 1010.3
20260507055601 54 237 3.0 5.0 0.00 0.00 0.00 85 1010.3
20260507055107 54 240 3.0 6.0 0.00 0.00 0.00 85 1010.2
20260507054613 54 262 2.0 3.0 0.00 0.00 0.00 86 1010.2
20260507054118 54 262 2.0 3.0 0.00 0.00 0.00 85 1010.1
20260507053624 54 243 3.0 5.0 0.00 0.00 0.00 85 1010.2
20260507053130 54 254 3.0 5.0 0.00 0.00 0.00 85 1010.1
20260507052636 54 273 1.0 3.0 0.00 0.00 0.00 88 1010.0
20260507052141 54 285 2.0 4.0 0.00 0.00 0.00 88 1009.9
20260507051153 54 279 2.0 5.0 0.00 0.00 0.00 89 1009.8
20260507050659 54 289 2.0 3.0 0.00 0.00 0.00 89 1009.8
20260507050205 54 297 2.0 3.0 0.00 0.00 0.00 90 1009.8
20260507045710 53 291 1.0 3.0 0.00 0.00 0.00 91 1009.7
20260507045216 53 301 1.0 2.0 0.00 0.00 0.00 92 1009.6
20260507044722 53 303 2.0 5.0 0.00 0.00 0.00 93 1009.5
20260507044228 53 315 3.0 5.0 0.00 0.00 0.00 95 1009.4
20260507043734 53 318 4.0 7.0 0.00 0.00 0.00 95 1009.4
20260507043239 53 318 3.0 6.0 0.00 0.00 0.00 93 1009.3
20260507042745 53 321 3.0 5.0 0.00 0.00 0.00 91 1009.4
20260507042251 53 315 3.0 5.0 0.00 0.00 0.00 90 1009.3
20260507041757 54 315 3.0 7.0 0.00 0.00 0.00 90 1009.3
20260507041303 54 303 3.0 5.0 0.00 0.00 0.00 94 1009.2
20260507040808 52 305 3.0 5.0 0.00 0.00 0.00 97 1009.2
20260507040314 52 306 4.0 6.0 0.00 0.00 0.00 100 1009.1
20260507035820 52 328 4.0 6.0 0.00 0.00 0.00 100 1009.1
20260507035326 52 314 5.0 7.0 0.00 0.00 0.00 100 1009.1
20260507034832 52 303 5.0 8.0 0.00 0.00 0.00 100 1009.0
20260507034338 52 324 5.0 7.0 0.00 0.00 0.00 100 1008.9
20260507033844 52 306 5.0 8.0 0.00 0.00 0.00 99 1008.8
20260507033350 52 306 5.0 7.0 0.00 0.00 0.00 95 1008.9
20260507032855 52 288 5.0 9.0 0.00 0.00 0.00 94 1009.0
20260507032401 52 300 4.0 7.0 0.00 0.00 0.00 92 1009.0
20260507031907 52 298 4.0 7.0 0.00 0.00 0.00 92 1009.0
20260507031413 52 297 4.0 6.0 0.00 0.00 0.00 90 1008.9
20260507030919 52 279 3.0 5.0 0.00 0.00 0.00 87 1008.9
20260507030425 52 279 4.0 6.0 0.00 0.00 0.00 88 1008.9
20260507025931 52 324 3.0 4.0 0.00 0.00 0.00 89 1008.9
20260507025437 52 299 4.0 5.0 0.00 0.00 0.00 89 1008.8
20260507024942 52 305 3.0 6.0 0.00 0.00 0.00 88 1008.8
20260507024448 52 306 3.0 4.0 0.00 0.00 0.00 86 1008.8
20260507023954 52 282 2.0 4.0 0.00 0.00 0.00 85 1008.8
20260507023500 53 273 3.0 5.0 0.00 0.00 0.00 84 1008.8
20260507022017 53 302 2.0 3.0 0.00 0.00 0.00 88 1008.7
20260507021523 53 318 3.0 4.0 0.00 0.00 0.00 91 1008.6
20260507021029 54 315 4.0 6.0 0.00 0.00 0.00 91 1008.6
20260507020535 54 316 3.0 4.0 0.00 0.00 0.00 90 1008.6
20260507020040 54 305 3.0 5.0 0.00 0.00 0.00 91 1008.6
20260507015546 54 306 3.0 5.0 0.00 0.00 0.00 89 1008.7
20260507015052 54 321 3.0 5.0 0.00 0.00 0.00 89 1008.5
20260507014558 54 301 3.0 5.0 0.00 0.00 0.00 89 1008.5
20260507014103 54 277 2.0 3.0 0.00 0.00 0.00 87 1008.5
20260507013609 54 276 2.0 5.0 0.00 0.00 0.00 87 1008.6
20260507013115 55 303 2.0 3.0 0.00 0.00 0.00 87 1008.6
20260507012621 55 295 2.0 3.0 0.00 0.00 0.00 88 1008.5
20260507012126 55 316 2.0 3.0 0.00 0.00 0.00 89 1008.4
20260507011632 55 309 3.0 3.0 0.00 0.00 0.00 90 1008.4
20260507011138 55 314 3.0 3.0 0.00 0.00 0.00 90 1008.4
20260507010644 55 318 3.0 3.0 0.00 0.00 0.00 89 1008.3
20260507010149 55 303 2.0 3.0 0.00 0.00 0.00 88 1008.3
20260507005655 55 309 1.0 3.0 0.00 0.00 0.00 86 1008.2
20260507005201 54 315 1.0 2.0 0.00 0.00 0.00 86 1008.1
20260507004707 54 312 2.0 3.0 0.00 0.00 0.00 87 1008.1
20260507004213 54 312 3.0 4.0 0.00 0.00 0.00 88 1008.2
20260507003718 54 279 2.0 3.0 0.00 0.00 0.00 85 1008.2
20260507003224 54 225 1.0 2.0 0.00 0.00 0.00 83 1008.1
20260507002730 54 249 1.0 2.0 0.00 0.00 0.00 83 1008.0
20260507001741 54 244 1.0 3.0 0.00 0.00 0.00 83 1007.9
20260507001247 54 264 1.0 1.0 0.00 0.00 0.00 83 1007.9
20260507000753 54 330 1.0 2.0 0.00 0.00 0.00 83 1007.8
20260506235805 54 4 1.0 2.0 0.00 0.00 0.00 82 1007.6
20260506235311 54 341 1.0 2.0 0.00 0.00 0.00 82 1007.7
20260506234816 54 238 0.0 1.0 0.00 0.00 0.00 82 1007.8
20260506234322 54 187 0.0 2.0 0.00 0.00 0.00 83 1007.8
20260506233828 54 269 0.0 1.0 0.00 0.00 0.00 83 1007.7
20260506233333 55 298 0.0 1.0 0.00 0.00 0.00 84 1007.7
20260506232839 55 315 1.0 3.0 0.00 0.00 0.00 84 1007.7
20260506232345 55 321 2.0 2.0 0.00 0.00 0.00 85 1007.7
20260506231851 55 321 2.0 3.0 0.00 0.00 0.00 87 1007.7
20260506231356 55 307 3.0 5.0 0.00 0.00 0.00 89 1007.8
20260506230902 55 322 4.0 5.0 0.00 0.00 0.00 90 1007.7
20260506230408 55 316 3.0 5.0 0.00 0.00 0.00 87 1007.7
20260506225914 55 300 3.0 5.0 0.00 0.00 0.00 85 1007.7
20260506225420 55 289 3.0 4.0 0.00 0.00 0.00 81 1007.7
20260506224926 55 253 4.0 5.0 0.00 0.00 0.00 78 1007.7
20260506224431 54 255 3.0 5.0 0.00 0.00 0.00 78 1007.7
20260506223937 54 267 3.0 6.0 0.00 0.00 0.00 79 1007.7
20260506223443 54 248 3.0 5.0 0.00 0.00 0.00 79 1007.7
20260506222949 54 225 4.0 6.0 0.00 0.00 0.00 78 1007.7
20260506222455 54 258 3.0 6.0 0.00 0.00 0.00 80 1007.6
20260506221506 54 221 4.0 7.0 0.00 0.00 0.00 79 1007.7
20260506221012 55 224 4.0 6.0 0.00 0.00 0.00 79 1007.6
20260506220518 55 224 3.0 4.0 0.00 0.00 0.00 81 1007.6
20260506220023 55 196 5.0 6.0 0.00 0.00 0.00 83 1007.6
20260506215529 55 180 6.0 7.0 0.00 0.00 0.00 85 1007.5
20260506215035 55 174 5.0 6.0 0.00 0.00 0.00 86 1007.4
20260506214541 55 171 5.0 6.0 0.00 0.00 0.00 85 1007.4
20260506214046 55 174 5.0 7.0 0.00 0.00 0.00 84 1007.4
20260506213552 55 180 5.0 7.0 0.00 0.00 0.00 83 1007.4
20260506213058 56 177 4.0 6.0 0.00 0.00 0.00 83 1007.6
20260506212603 56 180 4.0 5.0 0.00 0.00 0.00 85 1007.5
20260506212109 56 180 4.0 5.0 0.00 0.00 0.00 84 1007.5
20260506211615 56 154 3.0 5.0 0.00 0.00 0.00 84 1007.4
20260506211121 56 164 2.0 3.0 0.00 0.00 0.00 84 1007.3
20260506210627 56 180 3.0 4.0 0.00 0.00 0.00 82 1007.4
20260506210132 56 174 4.0 6.0 0.00 0.00 0.00 83 1007.4
20260506205638 56 199 5.0 8.0 0.00 0.00 0.00 81 1007.3
20260506205143 56 231 6.0 9.0 0.00 0.00 0.00 79 1007.4
20260506204649 57 228 7.0 12.0 0.00 0.00 0.00 75 1007.4
20260506204155 57 248 3.0 5.0 0.00 0.00 0.00 71 1007.3
20260506203700 57 267 2.0 3.0 0.00 0.00 0.00 73 1007.1
20260506203206 57 316 1.0 1.0 0.00 0.00 0.00 75 1006.8
20260506202712 57 344 1.0 2.0 0.00 0.00 0.00 76 1006.6
20260506202217 57 327 1.0 2.0 0.00 0.00 0.00 76 1006.3
20260506201723 57 357 2.0 2.0 0.00 0.00 0.00 76 1006.2
20260506201229 57 14 2.0 3.0 0.00 0.00 0.00 75 1006.1
20260506200734 57 282 2.0 4.0 0.00 0.00 0.00 74 1006.3
20260506195746 57 237 5.0 7.0 0.00 0.00 0.00 70 1006.7
20260506195251 58 197 4.0 5.0 0.00 0.00 0.00 69 1006.5
20260506194757 58 158 3.0 4.0 0.00 0.00 0.00 72 1006.3
20260506194302 58 135 3.0 4.0 0.00 0.00 0.00 73 1006.1
20260506193808 58 126 1.0 3.0 0.00 0.00 0.00 68 1006.0
20260506193313 58 113 3.0 4.0 0.00 0.00 0.00 68 1006.0
20260506192819 58 61 3.0 5.0 0.00 0.00 0.00 64 1006.1
20260506192325 58 59 3.0 4.0 0.00 0.00 0.00 65 1006.1
20260506191830 58 78 2.0 3.0 0.00 0.00 0.00 65 1006.0
20260506190842 58 2 2.0 4.0 0.00 0.00 0.00 64 1006.2
20260506190347 58 0 2.0 3.0 0.00 0.00 0.00 62 1006.2
20260506185853 58 357 3.0 3.0 0.00 0.00 0.00 63 1006.2
20260506185358 58 342 4.0 5.0 0.00 0.00 0.00 64 1006.1
20260506184904 58 357 3.0 3.0 0.00 0.00 0.00 64 1005.9
20260506184409 58 353 3.0 4.0 0.00 0.00 0.00 65 1005.8
20260506183915 59 327 3.0 5.0 0.00 0.00 0.00 64 1005.8
20260506183421 59 334 2.0 3.0 0.00 0.00 0.00 64 1005.7
20260506182926 60 338 3.0 5.0 0.00 0.00 0.00 63 1005.6
20260506182432 60 324 3.0 4.0 0.00 0.00 0.00 63 1005.5
20260506181937 60 324 3.0 4.0 0.00 0.00 0.00 62 1005.3
20260506180949 61 44 2.0 3.0 0.00 0.00 0.00 61 1005.2
20260506180453 61 64 2.0 3.0 0.00 0.00 0.00 62 1005.3
20260506175959 61 83 4.0 5.0 0.00 0.00 0.00 65 1005.2
20260506175504 61 91 5.0 7.0 0.00 0.00 0.00 72 1005.1
20260506175010 61 117 6.0 7.0 0.00 0.00 0.00 76 1005.0
20260506174515 61 139 5.0 6.0 0.00 0.00 0.00 68 1005.1
20260506174020 62 130 2.0 4.0 0.00 0.00 0.00 57 1005.3
20260506173526 63 349 1.0 2.0 0.00 0.00 0.00 54 1005.2
20260506173032 63 40 1.0 3.0 0.00 0.00 0.00 53 1005.2
20260506172537 64 322 1.0 2.0 0.00 0.00 0.00 53 1005.5
20260506172042 64 309 0.0 0.0 0.00 0.00 0.00 54 1005.5
20260506171547 65 329 2.0 3.0 0.00 0.00 0.00 53 1005.4
20260506170558 65 198 0.0 1.0 0.00 0.00 0.00 52 1005.2
20260506170104 65 241 0.0 1.0 0.00 0.00 0.00 52 1005.0
20260506165608 66 318 1.0 2.0 0.00 0.00 0.00 51 1004.9
20260506165113 66 27 1.0 2.0 0.00 0.00 0.00 50 1005.0
20260506164618 66 340 1.0 2.0 0.00 0.00 0.00 50 1005.1
20260506163629 68 350 1.0 1.0 0.00 0.00 0.00 50 1005.1
20260506163134 68 349 0.0 2.0 0.00 0.00 0.00 50 1005.3
20260506162639 69 357 1.0 1.0 0.00 0.00 0.00 50 1005.3
20260506162144 70 280 0.0 1.0 0.00 0.00 0.00 50 1005.2
20260506161154 71 177 1.0 3.0 0.00 0.00 0.00 50 1005.3
20260506160203 71 340 1.0 2.0 0.00 0.00 0.00 49 1005.1
20260506155708 71 299 1.0 2.0 0.00 0.00 0.00 49 1005.2
20260506155213 70 319 0.0 2.0 0.00 0.00 0.00 49 1005.3
20260506154718 70 311 0.0 1.0 0.00 0.00 0.00 49 1005.6
20260506154223 69 180 0.0 1.0 0.00 0.00 0.00 48 1005.7
20260506153728 69 180 2.0 3.0 0.00 0.00 0.00 48 1005.9
20260506153233 69 180 2.0 3.0 0.00 0.00 0.00 48 1006.0
20260506152738 70 224 1.0 2.0 0.00 0.00 0.00 47 1006.0
20260506152243 70 290 1.0 2.0 0.00 0.00 0.00 46 1006.0
20260506151748 71 298 1.0 2.0 0.00 0.00 0.00 46 1005.9
20260506151253 70 303 0.0 1.0 0.00 0.00 0.00 47 1006.0
20260506150758 70 212 1.0 2.0 0.00 0.00 0.00 48 1006.0
20260506150304 70 311 1.0 2.0 0.00 0.00 0.00 48 1005.9
20260506145807 70 240 1.0 2.0 0.00 0.00 0.00 47 1006.0
20260506145312 70 224 0.0 3.0 0.00 0.00 0.00 47 1006.1
20260506144817 70 223 2.0 4.0 0.00 0.00 0.00 47 1006.1
20260506144322 70 312 0.0 1.0 0.00 0.00 0.00 47 1006.1
20260506143827 71 345 0.0 1.0 0.00 0.00 0.00 47 1006.1
20260506143332 71 335 0.0 1.0 0.00 0.00 0.00 47 1006.1
20260506142837 71 333 2.0 4.0 0.00 0.00 0.00 47 1006.1
20260506142342 72 124 2.0 3.0 0.00 0.00 0.00 48 1006.0
20260506141351 73 160 2.0 3.0 0.00 0.00 0.00 47 1006.2
20260506140856 74 9 2.0 3.0 0.00 0.00 0.00 47 1006.2
20260506140400 75 311 2.0 4.0 0.00 0.00 0.00 47 1006.2
20260506134913 77 187 6.0 8.0 0.00 0.00 0.00 49 1006.4
20260506134418 77 184 5.0 8.0 0.00 0.00 0.00 50 1006.3
20260506133922 76 183 6.0 8.0 0.00 0.00 0.00 51 1006.4
20260506132931 77 152 4.0 7.0 0.00 0.00 0.00 49 1006.4
20260506131939 77 260 3.0 7.0 0.00 0.00 0.00 49 1006.5
20260506131444 75 201 7.0 10.0 0.00 0.00 0.00 50 1006.7
20260506130948 75 189 7.0 11.0 0.00 0.00 0.00 49 1006.8
20260506130453 75 201 7.0 12.0 0.00 0.00 0.00 51 1007.0
20260506125501 76 195 10.0 15.0 0.00 0.00 0.00 49 1007.0
20260506125006 77 201 10.0 13.0 0.00 0.00 0.00 49 1007.1
20260506124510 78 266 4.0 13.0 0.00 0.00 0.00 50 1007.1
20260506124014 77 279 4.0 8.0 0.00 0.00 0.00 52 1007.1
20260506123519 76 305 4.0 6.0 0.00 0.00 0.00 48 1007.1
20260506123023 79 200 5.0 10.0 0.00 0.00 0.00 55 1007.2
20260506122527 80 229 4.0 8.0 0.00 0.00 0.00 53 1007.3
20260506122031 79 237 4.0 5.0 0.00 0.00 0.00 54 1007.2
20260506121536 77 229 7.0 11.0 0.00 0.00 0.00 53 1007.2
20260506121039 77 211 6.0 8.0 0.00 0.00 0.00 55 1007.2
20260506120048 78 264 4.0 6.0 0.00 0.00 0.00 56 1007.2
20260506115057 77 225 5.0 16.0 0.00 0.00 0.00 53 1007.2
20260506114601 76 231 7.0 11.0 0.00 0.00 0.00 55 1007.2
20260506114106 77 261 2.0 6.0 0.00 0.00 0.00 57 1007.2
20260506113610 75 269 5.0 9.0 0.00 0.00 0.00 54 1007.3
20260506113114 76 239 4.0 8.0 0.00 0.00 0.00 57 1007.4
20260506112619 74 293 3.0 5.0 0.00 0.00 0.00 58 1007.4
20260506112123 75 232 6.0 10.0 0.00 0.00 0.00 57 1007.5
20260506111628 76 223 6.0 12.0 0.00 0.00 0.00 57 1007.4
20260506110637 74 215 7.0 11.0 0.00 0.00 0.00 57 1007.4
20260506110142 73 242 5.0 9.0 0.00 0.00 0.00 57 1007.5
20260506105647 74 306 4.0 9.0 0.00 0.00 0.00 55 1007.4
20260506105151 74 234 5.0 10.0 0.00 0.00 0.00 57 1007.5
20260506104656 72 270 5.0 10.0 0.00 0.00 0.00 59 1007.5
20260506104200 71 241 6.0 10.0 0.00 0.00 0.00 59 1007.5
20260506103705 71 235 5.0 7.0 0.00 0.00 0.00 60 1007.5
20260506103210 70 262 6.0 8.0 0.00 0.00 0.00 60 1007.5
20260506102715 71 249 6.0 8.0 0.00 0.00 0.00 60 1007.5
20260506102220 71 247 6.0 11.0 0.00 0.00 0.00 61 1007.7
20260506101724 71 236 5.0 7.0 0.00 0.00 0.00 61 1007.6
20260506101229 70 233 9.0 16.0 0.00 0.00 0.00 59 1007.6
20260506100734 70 213 10.0 18.0 0.00 0.00 0.00 59 1007.5
20260506095744 70 223 8.0 14.0 0.00 0.00 0.00 62 1007.7
20260506095248 70 252 3.0 6.0 0.00 0.00 0.00 64 1007.5
20260506094753 68 255 7.0 15.0 0.00 0.00 0.00 63 1007.5
20260506093803 68 235 6.0 10.0 0.00 0.00 0.00 64 1007.5
20260506093308 68 225 7.0 15.0 0.00 0.00 0.00 63 1007.5
20260506092813 68 273 5.0 8.0 0.00 0.00 0.00 65 1007.5
20260506092318 69 216 6.0 10.0 0.00 0.00 0.00 64 1007.3
20260506091823 69 270 5.0 8.0 0.00 0.00 0.00 66 1007.4
20260506091328 68 249 4.0 8.0 0.00 0.00 0.00 66 1007.4
20260506090833 68 236 7.0 12.0 0.00 0.00 0.00 65 1007.5
20260506090338 68 265 5.0 8.0 0.00 0.00 0.00 66 1007.6
20260506085842 69 256 6.0 13.0 0.00 0.00 0.00 66 1007.4
20260506085347 69 261 5.0 9.0 0.00 0.00 0.00 65 1007.5
20260506084852 69 266 5.0 9.0 0.00 0.00 0.00 65 1007.5
20260506084357 68 258 7.0 14.0 0.00 0.00 0.00 66 1007.5
20260506083408 67 261 5.0 13.0 0.00 0.00 0.00 68 1007.5
20260506082912 66 281 4.0 13.0 0.00 0.00 0.00 68 1007.4
20260506082417 66 260 4.0 8.0 0.00 0.00 0.00 69 1007.4
20260506081922 67 243 7.0 11.0 0.00 0.00 0.00 67 1007.4
20260506081427 68 264 6.0 12.0 0.00 0.00 0.00 67 1007.5
20260506080932 68 250 6.0 12.0 0.00 0.00 0.00 67 1007.2
20260506080438 67 283 4.0 7.0 0.00 0.00 0.00 69 1007.3
20260506073508 64 269 5.0 9.0 0.00 0.00 0.00 73 1007.3
20260506073014 63 268 5.0 9.0 0.00 0.00 0.00 73 1007.3
20260506072519 63 261 6.0 12.0 0.00 0.00 0.00 72 1007.3
20260506072024 63 279 4.0 7.0 0.00 0.00 0.00 72 1007.3
20260506071529 63 234 4.0 8.0 0.00 0.00 0.00 72 1007.3